Overview Statistics Trail Chart Weather Telemetry Raw packets
 

This is the latest recevied weather packets stored in our database for station/object 4S6DRJ-13. If no packets are shown the sender has not sent any weather packets the latest 10 day(s).

<< 143 144 145 146 147 148 149 >>
Time Temp. Humidity Pressure Rain* Wind** Luminosity Snow
1788246432 31.11° C 71% 1009 hPa 0 mm 2.24 m/s, 307° 1103 W/m² -
1788246371 31.11° C 71% 1009 hPa 0 mm 2.24 m/s, 276° 666 W/m² -
1788246311 31.11° C 71% 1008.9 hPa 0 mm 3.58 m/s, 109° 1125 W/m² -
1788246252 31.11° C 72% 1008.8 hPa 0 mm 0.89 m/s, 252° 1128 W/m² -
1788246190 31.67° C 71% 1009.1 hPa 0 mm 2.68 m/s, 234° 1132 W/m² -
1788246128 31.67° C 70% 1009 hPa 0 mm 2.68 m/s, 275° 1114 W/m² -
1788246066 31.67° C 69% 1009.1 hPa 0 mm 4.02 m/s, 226° 426 W/m² -
1788246005 31.11° C 69% 1009 hPa 0 mm 1.79 m/s, 190° 445 W/m² -
1788245945 31.11° C 69% 1009 hPa 0 mm 2.24 m/s, 316° 473 W/m² -
1788245884 31.11° C 70% 1009 hPa 0 mm 1.79 m/s, 228° 1141 W/m² -
1788245822 30.56° C 70% 1009 hPa 0 mm 2.24 m/s, 290° 1137 W/m² -
1788245761 30.56° C 70% 1009 hPa 0 mm 1.34 m/s, 53° 1136 W/m² -
1788245701 30.56° C 71% 1009.1 hPa 0 mm 1.34 m/s, 255° 1113 W/m² -
1788245639 30.56° C 70% 1009.1 hPa 0 mm 2.68 m/s, 277° 1126 W/m² -
1788245578 30.56° C 70% 1009 hPa 0 mm 4.02 m/s, 222° 483 W/m² -
1788245517 30.56° C 72% 1009.2 hPa 0 mm 1.79 m/s, 215° 611 W/m² -
1788245457 30.56° C 72% 1009.1 hPa 0 mm 3.13 m/s, 94° 525 W/m² -
1788245396 30.56° C 72% 1009.2 hPa 0 mm 0.89 m/s, 2° 526 W/m² -
1788245334 30.56° C 73% 1009.2 hPa 0 mm 2.24 m/s, 220° 494 W/m² -
1788245274 31.11° C 73% 1009.3 hPa 0 mm 1.34 m/s, 340° 318 W/m² -
1788245212 31.11° C 73% 1009.4 hPa 0 mm 1.34 m/s, 266° 284 W/m² -
1788245152 31.67° C 72% 1009.2 hPa 0 mm 1.79 m/s, 304° 290 W/m² -
1788245090 31.67° C 71% 1009.5 hPa 0 mm 2.68 m/s, 228° 305 W/m² -
1788245029 31.67° C 70% 1009.3 hPa 0 mm 2.68 m/s, 294° 256 W/m² -
1788244968 31.67° C 70% 1009.2 hPa 0 mm 1.79 m/s, 249° 256 W/m² -

* Rain latest hour (hover to see other rain measurements)
** Current wind speed in m/s (hover to see current wind gust speed)